Date String (YYYY-MM-DD hh:mm:ss) UTC,Instrument flags,absolute air pressure of the measurement (hPa),sample flow rate (lpm),inlet stack bypass flow (lpm),air temperature of the measurement (°C),ambient temperature measured by the external sensor (°C),aerosol sample conditioner tube jacket temperature (°C),OPC LED temperature (°C),internal box temperature (°C),relative humidity of the measurement (%),span deviation,mass concentration of particles derived from Lorenz-Mie calculation of OPC scattering (μg/m³),mass concentration of particles derived from Lorenz-Mie calculation of OPC scattering (μg/m³),mass concentration of particles derived from Lorenz-Mie calculation of OPC scattering (μg/m³)
DateTimeUTC,F1_M11,P_M11,Q1_M11,Q2_M11,T1_M11,T2_M11,T3_M11,T4_M11,T5_M11,U1_M11,ZSPAN_M11,X0_M11,X2_M11,X1_M11
2024-05-30 22:00:00,SystemResetWarning,0828.3,5.00,000.00,029.9,029.3,000.0,038.1,031.7,011.9,0000.0,0015.12,0003.50,0002.09
2024-05-30 22:01:00,SystemResetWarning,0828.4,4.99,000.00,029.9,029.4,000.0,038.1,031.7,011.2,0000.0,0015.00,0003.47,0002.10
2024-05-30 22:02:00,SystemResetWarning,0828.4,5.00,000.00,030.0,029.5,000.0,038.1,031.8,011.9,0000.0,0015.04,0003.47,0002.10
2024-05-30 22:03:00,SystemResetWarning,0828.3,5.00,000.00,030.1,029.5,000.0,038.2,031.9,011.7,0000.0,0015.59,0003.47,0002.10
2024-05-30 22:04:00,SystemResetWarning,0828.3,5.00,000.00,030.1,029.6,000.0,038.2,031.9,011.9,0000.0,0015.97,0003.51,0002.10
2024-05-30 22:05:00,SystemResetWarning,0828.3,5.00,000.00,030.1,029.7,000.0,038.3,032.0,011.9,0000.0,0015.62,0003.53,0002.11
2024-05-30 22:06:00,SystemResetWarning,0828.3,5.00,000.00,030.2,029.7,000.0,038.3,032.0,011.7,0000.0,0014.95,0003.57,0002.11
2024-05-30 22:07:00,SystemResetWarning,0828.3,4.99,000.00,030.2,029.1,000.0,038.4,031.7,012.1,0000.0,0015.11,0003.59,0002.12
2024-05-30 22:08:00,SystemResetWarning,0828.2,5.01,000.00,029.8,027.0,000.0,038.4,030.7,012.4,0000.0,0014.95,0003.59,0002.13
2024-05-30 22:09:00,SystemResetWarning,0828.2,5.01,000.00,029.6,026.8,000.0,038.4,030.5,013.6,0000.0,0014.09,0003.62,0002.12
2024-05-30 22:10:00,SystemResetWarning,0828.2,4.99,000.00,029.5,027.2,000.0,038.2,030.6,013.4,0000.0,0014.03,0003.62,0002.13
2024-05-30 22:11:00,SystemResetWarning,0828.1,4.99,000.00,029.5,027.6,000.0,038.2,030.9,013.1,0000.0,0014.97,0003.66,0002.15
2024-05-30 22:12:00,SystemResetWarning,0828.1,5.00,000.00,029.6,027.9,000.0,038.1,031.0,014.5,0000.0,0015.67,0003.67,0002.17
2024-05-30 22:13:00,SystemResetWarning,0828.1,5.01,000.00,029.6,028.2,000.0,038.1,031.2,014.1,0000.0,0016.49,0003.70,0002.18
2024-05-30 22:14:00,SystemResetWarning,0828.1,5.01,000.00,029.7,028.5,000.0,038.1,031.3,013.6,0000.0,0016.58,0003.75,0002.18
2024-05-30 22:15:00,SystemResetWarning,0828.1,5.00,000.00,029.7,028.7,000.0,038.1,031.4,013.0,0000.0,0016.75,0003.79,0002.17
2024-05-30 22:16:00,SystemResetWarning,0828.1,5.00,000.00,029.8,028.9,000.0,038.1,031.5,013.2,0000.0,0017.11,0003.80,0002.18
2024-05-30 22:17:00,SystemResetWarning,0828.0,5.00,000.00,029.8,029.0,000.0,038.1,031.6,013.6,0000.0,0018.56,0003.82,0002.18
2024-05-30 22:18:00,SystemResetWarning,0828.1,5.00,000.00,029.9,029.2,000.0,038.1,031.6,013.9,0000.0,0018.50,0003.81,0002.18
2024-05-30 22:19:00,SystemResetWarning,0828.1,5.00,000.00,029.9,029.3,000.0,038.1,031.7,013.3,0000.0,0017.76,0003.85,0002.20
2024-05-30 22:20:00,SystemResetWarning,0828.1,5.00,000.00,030.0,029.4,000.0,038.2,031.7,013.6,0000.0,0017.62,0003.86,0002.21
2024-05-30 22:21:00,SystemResetWarning,0828.1,5.00,000.00,030.0,029.5,000.0,038.2,031.8,014.3,0000.0,0017.09,0003.84,0002.22
2024-05-30 22:22:00,SystemResetWarning,0828.0,5.00,000.00,030.1,029.5,000.0,038.2,031.9,013.5,0000.0,0016.62,0003.84,0002.21
2024-05-30 22:23:00,SystemResetWarning,0828.0,5.00,000.00,030.1,029.6,000.0,038.2,031.9,013.6,0000.0,0017.46,0003.87,0002.23
2024-05-30 22:24:00,SystemResetWarning,0828.1,5.00,000.00,030.2,029.7,000.0,038.3,032.0,013.6,0000.0,0016.90,0003.86,0002.23
2024-05-30 22:25:00,SystemResetWarning,0828.0,4.98,000.00,030.1,028.1,000.0,038.4,031.2,013.4,0000.0,0016.04,0003.82,0002.23
2024-05-30 22:26:00,SystemResetWarning,0828.1,5.01,000.00,029.7,026.6,000.0,038.4,030.4,014.2,0000.0,0015.71,0003.79,0002.26
2024-05-30 22:27:00,SystemResetWarning,0828.0,5.00,000.00,029.5,026.9,000.0,038.3,030.5,013.9,0000.0,0014.28,0003.80,0002.26
2024-05-30 22:28:00,SystemResetWarning,0828.1,5.00,000.00,029.5,027.3,000.0,038.2,030.7,013.6,0000.0,0013.88,0003.78,0002.27
2024-05-30 22:29:00,SystemResetWarning,0828.0,5.00,000.00,029.5,027.6,000.0,038.1,030.9,014.0,0000.0,0014.03,0003.77,0002.28
2024-05-30 22:30:00,SystemResetWarning,0828.0,5.01,000.00,029.5,028.0,000.0,038.1,031.1,014.5,0000.0,0015.04,0003.73,0002.27
2024-05-30 22:31:00,SystemResetWarning,0828.0,5.00,000.00,029.6,028.3,000.0,038.1,031.2,014.9,0000.0,0015.40,0003.69,0002.25
2024-05-30 22:32:00,SystemResetWarning,0828.0,5.00,000.00,029.7,028.5,000.0,038.0,031.3,014.8,0000.0,0014.94,0003.68,0002.25
2024-05-30 22:33:00,SystemResetWarning,0828.0,5.00,000.00,029.7,028.7,000.0,038.0,031.4,014.6,0000.0,0014.52,0003.66,0002.26
2024-05-30 22:34:00,SystemResetWarning,0828.0,5.00,000.00,029.7,028.9,000.0,038.1,031.5,014.4,0000.0,0013.15,0003.66,0002.26
2024-05-30 22:35:00,SystemResetWarning,0828.0,5.00,000.00,029.8,029.0,000.0,038.1,031.6,014.1,0000.0,0013.53,0003.64,0002.27
2024-05-30 22:36:00,SystemResetWarning,0828.0,5.00,000.00,029.9,029.2,000.0,038.1,031.7,014.1,0000.0,0013.91,0003.65,0002.28
2024-05-30 22:37:00,SystemResetWarning,0828.1,5.00,000.00,029.9,029.3,000.0,038.1,031.7,014.4,0000.0,0013.81,0003.69,0002.28
2024-05-30 22:38:00,SystemResetWarning,0828.1,5.00,000.00,030.0,029.4,000.0,038.2,031.8,014.6,0000.0,0014.18,0003.69,0002.28
2024-05-30 22:39:00,SystemResetWarning,0828.0,5.00,000.00,030.0,029.5,000.0,038.2,031.8,014.2,0000.0,0013.65,0003.70,0002.28
2024-05-30 22:40:00,SystemResetWarning,0828.0,5.00,000.00,030.1,029.5,000.0,038.2,031.9,014.4,0000.0,0013.79,0003.70,0002.27
2024-05-30 22:41:00,SystemResetWarning,0828.0,5.00,000.00,030.1,029.6,000.0,038.3,031.9,015.0,0000.0,0014.09,0003.73,0002.28
2024-05-30 22:42:00,SystemResetWarning,0828.0,5.00,000.00,030.2,029.7,000.0,038.3,032.0,014.8,0000.0,0015.32,0003.77,0002.30
2024-05-30 22:43:00,SystemResetWarning,0827.8,5.00,000.00,030.2,029.5,000.0,038.3,031.9,015.0,0000.0,0017.18,0003.80,0002.31
2024-05-30 22:44:00,SystemResetWarning,0827.8,4.99,000.00,030.0,027.2,000.0,038.4,030.9,015.9,0000.0,0017.61,0003.83,0002.33
2024-05-30 22:45:00,SystemResetWarning,0827.8,5.02,000.00,029.6,026.6,000.0,038.4,030.4,015.7,0000.0,0018.93,0003.83,0002.33
2024-05-30 22:46:00,SystemResetWarning,0827.7,4.99,000.00,029.5,026.9,000.0,038.3,030.5,016.3,0000.0,0018.62,0003.86,0002.34
2024-05-30 22:47:00,SystemResetWarning,0827.7,5.00,000.00,029.5,027.3,000.0,038.2,030.8,015.9,0000.0,0018.48,0003.91,0002.37
2024-05-30 22:48:00,SystemResetWarning,0827.7,5.00,000.00,029.5,027.7,000.0,038.1,031.0,015.6,0000.0,0018.45,0003.91,0002.38
2024-05-30 22:49:00,SystemResetWarning,0827.7,4.99,000.00,029.6,028.0,000.0,038.1,031.1,015.8,0000.0,0018.51,0003.88,0002.39
2024-05-30 22:50:00,SystemResetWarning,0827.7,5.00,000.00,029.6,028.3,000.0,038.1,031.2,015.3,0000.0,0018.51,0003.88,0002.39
2024-05-30 22:51:00,SystemResetWarning,0827.7,5.00,000.00,029.7,028.5,000.0,038.1,031.3,015.7,0000.0,0018.97,0003.89,0002.40
2024-05-30 22:52:00,SystemResetWarning,0827.7,5.00,000.00,029.7,028.7,000.0,038.1,031.4,016.0,0000.0,0018.87,0003.89,0002.42
2024-05-30 22:53:00,SystemResetWarning,0827.7,5.00,000.00,029.8,028.9,000.0,038.1,031.5,015.4,0000.0,0018.26,0003.87,0002.43
2024-05-30 22:54:00,SystemResetWarning,0827.7,5.00,000.00,029.8,029.0,000.0,038.1,031.6,015.2,0000.0,0017.37,0003.93,0002.44
2024-05-30 22:55:00,SystemResetWarning,0827.7,5.01,000.00,029.9,029.2,000.0,038.1,031.7,015.6,0000.0,0018.44,0003.98,0002.46
2024-05-30 22:56:00,SystemResetWarning,0827.8,5.01,000.00,029.9,029.3,000.0,038.1,031.7,016.5,0000.0,0017.45,0004.02,0002.46
2024-05-30 22:57:00,SystemResetWarning,0827.7,4.99,000.00,030.0,029.4,000.0,038.1,031.8,016.2,0000.0,0017.10,0004.10,0002.48
2024-05-30 22:58:00,SystemResetWarning,0827.8,4.99,000.00,030.0,029.5,000.0,038.2,031.9,016.1,0000.0,0017.63,0004.11,0002.48
2024-05-30 22:59:00,SystemResetWarning,0827.9,5.00,000.00,030.1,029.6,000.0,038.2,031.9,016.4,0000.0,0018.71,0004.15,0002.47
